| time (UTC) | temp F | wind direction | speed knots | gust knots | rain 1hr in | rain 24hr in | rain mn in | humidity % | barometer mb |
| 20260504060106 | 51 | 183 | 0.9 | 3.5 | 0.00 | 0.00 | 0.00 | 55 | 1008.3 |
| 20260504050549 | 53 | 281 | 1.7 | 7.0 | 0.00 | 0.00 | 0.00 | 53 | 1008.5 |
| 20260504045549 | 53 | 187 | 1.7 | 8.7 | 0.00 | 0.00 | 0.00 | 53 | 1008.6 |
| 20260504045050 | 53 | 254 | 1.7 | 7.0 | 0.00 | 0.00 | 0.00 | 53 | 1008.6 |
| 20260504044548 | 53 | 298 | 0.9 | 9.6 | 0.00 | 0.00 | 0.00 | 53 | 1008.6 |
| 20260504044047 | 53 | 248 | 1.7 | 9.6 | 0.00 | 0.00 | 0.00 | 53 | 1008.6 |
| 20260504043546 | 53 | 221 | 2.6 | 8.7 | 0.00 | 0.00 | 0.00 | 54 | 1008.6 |
| 20260504043054 | 53 | 215 | 1.7 | 6.1 | 0.00 | 0.00 | 0.00 | 54 | 1008.6 |
| 20260504042544 | 53 | 268 | 1.7 | 6.1 | 0.00 | 0.00 | 0.00 | 54 | 1008.6 |
| 20260504042046 | 53 | 208 | 0.9 | 4.3 | 0.00 | 0.00 | 0.00 | 55 | 1008.6 |
| 20260504041543 | 53 | 261 | 0.9 | 6.1 | 0.00 | 0.00 | 0.00 | 55 | 1008.6 |
| 20260504041042 | 53 | 268 | 0.9 | 8.7 | 0.00 | 0.00 | 0.00 | 55 | 1008.6 |
| 20260504040542 | 53 | 253 | 0.9 | 8.7 | 0.00 | 0.00 | 0.00 | 54 | 1008.5 |
| 20260504040041 | 53 | 158 | 0.9 | 3.5 | 0.00 | 0.00 | 0.00 | 54 | 1008.5 |
| 20260504035540 | 53 | 215 | 0.0 | 2.6 | 0.00 | 0.00 | 0.00 | 55 | 1008.4 |
| 20260504035044 | 53 | 191 | 0.0 | 5.2 | 0.00 | 0.00 | 0.00 | 55 | 1008.4 |
| 20260504034547 | 53 | 288 | 0.9 | 9.6 | 0.00 | 0.00 | 0.00 | 55 | 1008.4 |
| 20260504034039 | 53 | 294 | 3.5 | 9.6 | 0.00 | 0.00 | 0.00 | 54 | 1008.5 |
| 20260504033539 | 53 | 320 | 1.7 | 6.1 | 0.00 | 0.00 | 0.00 | 56 | 1008.5 |
| 20260504033041 | 52 | 248 | 1.7 | 6.1 | 0.00 | 0.00 | 0.00 | 56 | 1008.5 |
| 20260504032539 | 52 | 274 | 1.7 | 9.6 | 0.00 | 0.00 | 0.00 | 57 | 1008.5 |
| 20260504032043 | 52 | 261 | 1.7 | 9.6 | 0.00 | 0.00 | 0.00 | 58 | 1008.6 |
| 20260504031538 | 51 | 298 | 0.9 | 7.8 | 0.00 | 0.00 | 0.00 | 59 | 1008.6 |
| 20260504031039 | 51 | 317 | 0.9 | 6.1 | 0.00 | 0.00 | 0.00 | 60 | 1008.6 |
| 20260504030538 | 50 | 229 | 0.9 | 7.0 | 0.00 | 0.00 | 0.00 | 60 | 1008.7 |
| 20260504030045 | 50 | 236 | 1.7 | 7.0 | 0.00 | 0.00 | 0.00 | 60 | 1008.8 |
| 20260504025538 | 50 | 240 | 0.0 | 3.5 | 0.00 | 0.00 | 0.00 | 63 | 1008.8 |
| 20260504025037 | 50 | 226 | 0.0 | 2.6 | 0.00 | 0.00 | 0.00 | 65 | 1008.9 |
| 20260504024537 | 50 | 217 | 0.0 | 2.6 | 0.00 | 0.00 | 0.00 | 66 | 1008.9 |
| 20260504024037 | 50 | 205 | 0.0 | 1.7 | 0.00 | 0.00 | 0.00 | 66 | 1009.0 |
| 20260504023537 | 50 | 215 | 0.0 | 1.7 | 0.00 | 0.00 | 0.00 | 64 | 1009.1 |
| 20260504023037 | 50 | 253 | 0.0 | 1.7 | 0.00 | 0.00 | 0.00 | 63 | 1009.2 |
| 20260504022537 | 50 | 198 | 0.0 | 1.7 | 0.00 | 0.00 | 0.00 | 64 | 1009.2 |
| 20260504022036 | 50 | 231 | 0.0 | 0.9 | 0.00 | 0.00 | 0.00 | 63 | 1009.2 |
| 20260504021537 | 50 | 235 | 0.0 | 1.7 | 0.00 | 0.00 | 0.00 | 64 | 1009.1 |
| 20260504021037 | 50 | 246 | 0.0 | 2.6 | 0.00 | 0.00 | 0.00 | 63 | 1009.1 |
| 20260504020536 | 50 | 234 | 0.0 | 3.5 | 0.00 | 0.00 | 0.00 | 65 | 1009.1 |
| 20260504020043 | 50 | 207 | 0.0 | 3.5 | 0.00 | 0.00 | 0.00 | 65 | 1009.1 |
| 20260504015536 | 50 | 229 | 0.0 | 2.6 | 0.00 | 0.00 | 0.00 | 66 | 1009.2 |
| 20260504015036 | 50 | 238 | 0.0 | 1.7 | 0.00 | 0.00 | 0.00 | 66 | 1009.3 |
| 20260504014538 | 50 | 154 | 0.0 | 2.6 | 0.00 | 0.00 | 0.00 | 66 | 1009.5 |
| 20260504014035 | 50 | 263 | 0.0 | 2.6 | 0.00 | 0.00 | 0.00 | 66 | 1009.6 |
| 20260504013536 | 50 | 229 | 0.0 | 3.5 | 0.00 | 0.00 | 0.00 | 67 | 1009.6 |
| 20260504013037 | 50 | 250 | 0.0 | 3.5 | 0.00 | 0.00 | 0.00 | 66 | 1009.7 |
| 20260504012532 | 50 | 265 | 0.9 | 6.1 | 0.00 | 0.00 | 0.00 | 66 | 1009.6 |
| 20260504012032 | 50 | 217 | 0.0 | 6.1 | 0.00 | 0.00 | 0.00 | 66 | 1009.6 |
| 20260504011533 | 50 | 263 | 0.9 | 4.3 | 0.00 | 0.00 | 0.00 | 66 | 1009.5 |
| 20260504011031 | 50 | 227 | 0.0 | 4.3 | 0.00 | 0.00 | 0.00 | 67 | 1009.7 |
| 20260504010533 | 51 | 83 | 0.9 | 6.1 | 0.00 | 0.00 | 0.00 | 67 | 1009.7 |
| 20260504010031 | 51 | 355 | 1.7 | 8.7 | 0.00 | 0.00 | 0.00 | 66 | 1009.8 |
| 20260504005532 | 51 | 168 | 1.7 | 8.7 | 0.00 | 0.00 | 0.00 | 65 | 1009.9 |
| 20260504005030 | 52 | 166 | 1.7 | 7.0 | 0.00 | 0.00 | 0.00 | 63 | 1010.0 |
| 20260504004530 | 52 | 101 | 1.7 | 13.9 | 0.00 | 0.00 | 0.00 | 61 | 1009.9 |
| 20260504004031 | 52 | 85 | 1.7 | 13.9 | 0.00 | 0.00 | 0.00 | 59 | 1009.7 |
| 20260504003531 | 53 | 11 | 1.7 | 7.8 | 0.00 | 0.00 | 0.00 | 58 | 1009.6 |
| 20260504003029 | 53 | 18 | 0.9 | 10.4 | 0.00 | 0.00 | 0.00 | 57 | 1009.5 |
| 20260504002529 | 53 | 86 | 1.7 | 10.4 | 0.00 | 0.00 | 0.00 | 55 | 1009.4 |
| 20260504002030 | 53 | 213 | 1.7 | 8.7 | 0.00 | 0.00 | 0.00 | 54 | 1009.3 |
| 20260504001529 | 53 | 294 | 3.5 | 8.7 | 0.00 | 0.00 | 0.00 | 54 | 1009.3 |
| 20260504001030 | 54 | 294 | 1.7 | 9.6 | 0.00 | 0.00 | 0.00 | 53 | 1009.3 |
| 20260504000529 | 54 | 5 | 2.6 | 11.3 | 0.00 | 0.00 | 0.00 | 53 | 1009.4 |
| 20260504000028 | 54 | 136 | 1.7 | 15.6 | 0.00 | 0.00 | 0.00 | 51 | 1009.3 |
| 20260503235527 | 54 | 322 | 4.3 | 13.0 | 0.00 | 0.00 | 0.00 | 50 | 1009.2 |
| 20260503235027 | 55 | 28 | 2.6 | 11.3 | 0.00 | 0.00 | 0.00 | 49 | 1009.2 |
| 20260503234527 | 55 | 220 | 1.7 | 11.3 | 0.00 | 0.00 | 0.00 | 48 | 1008.8 |
| 20260503234027 | 55 | 254 | 3.5 | 13.9 | 0.00 | 0.00 | 0.00 | 47 | 1008.8 |
| 20260503233527 | 55 | 167 | 2.6 | 16.5 | 0.00 | 0.00 | 0.00 | 47 | 1008.8 |
| 20260503233027 | 54 | 258 | 5.2 | 16.5 | 0.00 | 0.00 | 0.00 | 46 | 1008.7 |
| 20260503232526 | 54 | 213 | 4.3 | 10.4 | 0.00 | 0.00 | 0.00 | 46 | 1008.7 |
| 20260503232026 | 54 | 277 | 0.9 | 6.1 | 0.00 | 0.00 | 0.00 | 46 | 1008.7 |
| 20260503231526 | 54 | 13 | 0.9 | 7.0 | 0.00 | 0.00 | 0.00 | 46 | 1008.7 |
| 20260503231026 | 55 | 230 | 0.9 | 7.0 | 0.00 | 0.00 | 0.00 | 46 | 1008.6 |
| 20260503230526 | 55 | 285 | 1.7 | 7.0 | 0.00 | 0.00 | 0.00 | 46 | 1008.7 |
| 20260503230027 | 55 | 261 | 0.9 | 4.3 | 0.00 | 0.00 | 0.00 | 47 | 1008.6 |
| 20260503225528 | 55 | 321 | 0.9 | 4.3 | 0.00 | 0.00 | 0.00 | 45 | 1008.5 |
| 20260503225028 | 55 | 57 | 0.0 | 4.3 | 0.00 | 0.00 | 0.00 | 45 | 1008.8 |
| 20260503224526 | 55 | 355 | 0.0 | 4.3 | 0.00 | 0.00 | 0.00 | 45 | 1008.9 |
| 20260503224026 | 55 | 265 | 0.9 | 3.5 | 0.00 | 0.00 | 0.00 | 45 | 1008.9 |
| 20260503223524 | 55 | 26 | 0.9 | 2.6 | 0.00 | 0.00 | 0.00 | 44 | 1008.7 |
| 20260503223024 | 55 | 209 | 0.0 | 5.2 | 0.00 | 0.00 | 0.00 | 45 | 1008.9 |
| 20260503222523 | 55 | 211 | 1.7 | 7.0 | 0.00 | 0.00 | 0.00 | 44 | 1009.0 |
| 20260503222025 | 55 | 323 | 2.6 | 7.0 | 0.00 | 0.00 | 0.00 | 43 | 1009.0 |
| 20260503221525 | 55 | 317 | 0.9 | 8.7 | 0.00 | 0.00 | 0.00 | 44 | 1009.0 |
| 20260503221024 | 55 | 196 | 2.6 | 8.7 | 0.00 | 0.00 | 0.00 | 44 | 1009.2 |
| 20260503220524 | 55 | 182 | 0.9 | 4.3 | 0.00 | 0.00 | 0.00 | 44 | 1009.1 |
| 20260503220024 | 55 | 15 | 0.0 | 4.3 | 0.00 | 0.00 | 0.00 | 45 | 1009.0 |
| 20260503215524 | 55 | 277 | 0.9 | 4.3 | 0.00 | 0.00 | 0.00 | 44 | 1008.9 |
| 20260503215022 | 55 | 284 | 0.9 | 7.0 | 0.00 | 0.00 | 0.00 | 45 | 1009.0 |
| 20260503214537 | 55 | 25 | 0.0 | 8.7 | 0.00 | 0.00 | 0.00 | 43 | 1008.9 |
| 20260503214023 | 55 | 80 | 0.0 | 8.7 | 0.00 | 0.00 | 0.00 | 44 | 1008.8 |
| 20260503213522 | 55 | 92 | 0.9 | 4.3 | 0.00 | 0.00 | 0.00 | 43 | 1008.8 |
| 20260503213022 | 56 | 320 | 0.9 | 7.0 | 0.00 | 0.00 | 0.00 | 43 | 1008.7 |
| 20260503212522 | 56 | 291 | 0.9 | 4.3 | 0.00 | 0.00 | 0.00 | 44 | 1008.7 |
| 20260503212022 | 56 | 18 | 1.7 | 7.8 | 0.00 | 0.00 | 0.00 | 43 | 1008.7 |
| 20260503211521 | 56 | 246 | 2.6 | 7.8 | 0.00 | 0.00 | 0.00 | 42 | 1008.9 |
| 20260503211019 | 56 | 280 | 1.7 | 4.3 | 0.00 | 0.00 | 0.00 | 42 | 1008.9 |
| 20260503210519 | 56 | 360 | 1.7 | 10.4 | 0.00 | 0.00 | 0.00 | 45 | 1009.0 |
| 20260503210019 | 55 | 286 | 3.5 | 10.4 | 0.00 | 0.00 | 0.00 | 42 | 1009.0 |
| 20260503205519 | 55 | 36 | 2.6 | 7.0 | 0.00 | 0.00 | 0.00 | 42 | 1009.1 |
| 20260503205020 | 56 | 337 | 1.7 | 7.0 | 0.00 | 0.00 | 0.00 | 42 | 1009.0 |
| 20260503204517 | 56 | 315 | 1.7 | 6.1 | 0.00 | 0.00 | 0.00 | 41 | 1009.1 |
| 20260503204019 | 56 | 308 | 0.9 | 6.1 | 0.00 | 0.00 | 0.00 | 42 | 1009.1 |
| 20260503203516 | 56 | 355 | 0.0 | 7.8 | 0.00 | 0.00 | 0.00 | 46 | 1009.2 |
| 20260503203015 | 55 | 221 | 0.9 | 7.8 | 0.00 | 0.00 | 0.00 | 46 | 1009.3 |
| 20260503202515 | 54 | 183 | 2.6 | 8.7 | 0.00 | 0.00 | 0.00 | 43 | 1009.4 |
| 20260503202015 | 55 | 293 | 2.6 | 7.0 | 0.00 | 0.00 | 0.00 | 44 | 1009.5 |
| 20260503201516 | 55 | 76 | 1.7 | 7.0 | 0.00 | 0.00 | 0.00 | 43 | 1009.5 |
| 20260503201018 | 56 | 337 | 2.6 | 7.8 | 0.00 | 0.00 | 0.00 | 44 | 1009.6 |
| 20260503200514 | 55 | 40 | 1.7 | 7.8 | 0.00 | 0.00 | 0.00 | 44 | 1009.7 |
| 20260503200014 | 55 | 296 | 1.7 | 7.0 | 0.00 | 0.00 | 0.00 | 42 | 1009.7 |
| 20260503195512 | 56 | 267 | 0.9 | 7.8 | 0.00 | 0.00 | 0.00 | 43 | 1009.8 |
| 20260503195011 | 56 | 25 | 2.6 | 7.8 | 0.00 | 0.00 | 0.00 | 43 | 1009.9 |
| 20260503194510 | 55 | 292 | 1.7 | 10.4 | 0.00 | 0.00 | 0.00 | 44 | 1010.0 |
| 20260503194010 | 54 | 230 | 3.5 | 10.4 | 0.00 | 0.00 | 0.00 | 45 | 1010.0 |
| 20260503193509 | 54 | 186 | 1.7 | 8.7 | 0.00 | 0.00 | 0.00 | 45 | 1010.2 |
| 20260503193009 | 54 | 49 | 1.7 | 7.8 | 0.00 | 0.00 | 0.00 | 45 | 1010.3 |
| 20260503192508 | 55 | 267 | 0.9 | 8.7 | 0.00 | 0.00 | 0.00 | 48 | 1010.4 |
| 20260503192007 | 55 | 279 | 1.7 | 7.8 | 0.00 | 0.00 | 0.00 | 47 | 1010.4 |
| 20260503191515 | 56 | 291 | 1.7 | 8.7 | 0.00 | 0.00 | 0.00 | 49 | 1010.5 |
| 20260503191006 | 55 | 207 | 1.7 | 8.7 | 0.00 | 0.00 | 0.00 | 51 | 1010.6 |
| 20260503190504 | 54 | 49 | 0.9 | 7.0 | 0.00 | 0.00 | 0.00 | 54 | 1010.7 |
| 20260503190007 | 52 | 42 | 1.7 | 7.0 | 0.00 | 0.00 | 0.00 | 50 | 1010.8 |
| 20260503185503 | 52 | 200 | 0.0 | 3.5 | 0.00 | 0.00 | 0.00 | 51 | 1010.8 |
| 20260503185002 | 52 | 301 | 0.9 | 7.0 | 0.00 | 0.00 | 0.00 | 52 | 1010.8 |
| 20260503184503 | 51 | 198 | 0.9 | 7.0 | 0.00 | 0.00 | 0.00 | 49 | 1010.9 |
| 20260503184001 | 52 | 265 | 3.5 | 7.8 | 0.00 | 0.00 | 0.00 | 50 | 1010.9 |
| 20260503183600 | 52 | 245 | 2.6 | 7.8 | 0.00 | 0.00 | 0.00 | 50 | 1010.9 |
| 20260503183102 | 53 | 13 | 0.9 | 7.8 | 0.00 | 0.00 | 0.00 | 54 | 1010.8 |
| 20260503182559 | 53 | 11 | 0.9 | 11.3 | 0.00 | 0.00 | 0.00 | 53 | 1010.8 |
| 20260503182058 | 53 | 182 | 1.7 | 11.3 | 0.00 | 0.00 | 0.00 | 49 | 1010.9 |
| 20260503181612 | 53 | 326 | 1.7 | 6.1 | 0.00 | 0.00 | 0.00 | 54 | 1010.8 |
| 20260503181057 | 53 | 317 | 0.9 | 9.6 | 0.00 | 0.00 | 0.00 | 51 | 1010.9 |
| 20260503180552 | 52 | 280 | 2.6 | 9.6 | 0.00 | 0.00 | 0.00 | 50 | 1011.0 |
| 20260503180111 | 52 | 159 | 1.7 | 7.8 | 0.00 | 0.00 | 0.00 | 52 | 1011.0 |
| 20260503175550 | 52 | 28 | 2.6 | 11.3 | 0.00 | 0.00 | 0.00 | 47 | 1011.1 |
| 20260503175049 | 53 | 300 | 0.9 | 11.3 | 0.00 | 0.00 | 0.00 | 52 | 1011.1 |
| 20260503174556 | 53 | 53 | 1.7 | 13.0 | 0.00 | 0.00 | 0.00 | 53 | 1011.2 |
| 20260503174047 | 54 | 323 | 4.3 | 13.0 | 0.00 | 0.00 | 0.00 | 50 | 1011.2 |
| 20260503173546 | 54 | 292 | 0.9 | 7.0 | 0.00 | 0.00 | 0.00 | 56 | 1011.2 |
| 20260503173055 | 52 | 279 | 0.9 | 9.6 | 0.00 | 0.00 | 0.00 | 48 | 1011.3 |
| 20260503172544 | 53 | 131 | 1.7 | 9.6 | 0.00 | 0.00 | 0.00 | 52 | 1011.2 |
| 20260503172042 | 53 | 165 | 2.6 | 8.7 | 0.00 | 0.00 | 0.00 | 51 | 1011.3 |
| 20260503171542 | 53 | 236 | 1.7 | 5.2 | 0.00 | 0.00 | 0.00 | 50 | 1011.3 |
| 20260503171041 | 53 | 96 | 0.9 | 7.8 | 0.00 | 0.00 | 0.00 | 51 | 1011.4 |
| 20260503170540 | 53 | 348 | 2.6 | 7.8 | 0.00 | 0.00 | 0.00 | 49 | 1011.5 |
| 20260503150526 | 48 | 62 | 0.9 | 5.2 | 0.00 | 0.00 | 0.00 | 48 | 1013.4 |
| 20260503131007 | 43 | 221 | 2.6 | 9.6 | 0.00 | 0.00 | 0.00 | 56 | 1014.2 |
| 20260503130506 | 43 | 59 | 0.9 | 4.3 | 0.00 | 0.00 | 0.00 | 61 | 1014.3 |
| 20260503110521 | 34 | 295 | 0.0 | 2.6 | 0.00 | 0.00 | 0.00 | 87 | 1013.8 |
| 20260503090504 | 35 | 283 | 0.0 | 0.0 | 0.00 | 0.00 | 0.00 | 82 | 1013.5 |
| 20260503081556 | 36 | 264 | 0.0 | 1.7 | 0.00 | 0.00 | 0.00 | 80 | 1013.6 |
| 20260503081056 | 37 | 222 | 0.0 | 3.5 | 0.00 | 0.00 | 0.00 | 80 | 1013.6 |
| 20260503080557 | 37 | 244 | 0.0 | 3.5 | 0.00 | 0.00 | 0.00 | 80 | 1013.5 |
| 20260503080105 | 37 | 251 | 0.0 | 2.6 | 0.00 | 0.00 | 0.00 | 79 | 1013.6 |
| 20260503072549 | 38 | 280 | 0.0 | 2.6 | 0.00 | 0.00 | 0.00 | 79 | 1013.4 |
| 20260503072045 | 38 | 310 | 0.0 | 2.6 | 0.00 | 0.00 | 0.00 | 79 | 1013.5 |
| 20260503071546 | 38 | 323 | 0.0 | 2.6 | 0.00 | 0.00 | 0.00 | 79 | 1013.5 |
| 20260503071047 | 38 | 62 | 0.0 | 3.5 | 0.00 | 0.00 | 0.00 | 79 | 1013.4 |
| 20260503070543 | 38 | 314 | 0.0 | 3.5 | 0.00 | 0.00 | 0.00 | 79 | 1013.4 |